Zurück zum Katalog

DELTA 1 DEB

AktivPO
NORAD 21383·DEBRIS·🇺🇸 United States

Gestartet Jun 12, 1975 von Vandenberg Space Force Base

Loading…

Nächste Überflüge (nächste 24 Stunden)

TLE

AktuellSource: Space-Track

Epoche: Sep 12, 2026, 02:52 UTC

1 21383U 75052DD  26255.11998328  .00000120  00000-0  56728-3 0  9991
2 21383  99.6906 135.8907 0362957 164.7496 356.4501 12.73225412639506

Verfolge DELTA 1 DEB in Echtzeit mit AllMySat

Download on the App Store